Staunton, VA

9:31 PM EDT on September 19, 2017 (GMT -0400)
Shenandoah Valley Regional

Weather History for KSHD - November, 2012

Change the Weather History Date:

Saturday, November 17, 2012

  Actual Average Record
Temperature  
Mean Temperature 38 °F -  
Max Temperature 54 °F 55 °F 66 °F (1998)
Min Temperature 23 °F 32 °F 19 °F (1996)
Degree Days  
Heating Degree Days 26    
Moisture  
Dew Point 26 °F    
Average Humidity 69    
Maximum Humidity 91    
Minimum Humidity 31    
Precipitation  
Precipitation 0.00 in - - ()
Sea Level Pressure  
Sea Level Pressure 30.54 in    
Wind  
Wind Speed 2 mph (NNE)    
Max Wind Speed 9 mph    
Max Gust Speed -    
Visibility 9 miles    
Events      
Averages and records for this station are not official NWS values.
T = Trace of Precipitation, MM = Missing Value Source: NWS Daily Summary

Daily Weather History Graph

Daily Weather History Graph

Search for Another Location

Airport or City:

Trip Planner

Search our weather history database for the weather conditions in past years. The results will help you decide how hot, cold, wet, or windy it might be!

Date:

Astronomy

Nov. 17, 2012 Rise Set
Actual Time 6:59 AM EST 5:01 PM EST
Civil Twilight 6:31 AM EST 5:29 PM EST
Nautical Twilight 5:59 AM EST 6:01 PM EST
Astronomical Twilight 5:27 AM EST 6:33 PM EST
Moon 10:42 AM EST (11/17) 9:09 PM EST (11/17)
Length of Visible Light 10h 58m
Length of Day
10h 01m
Waxing Crescent, 20% of the Moon is Illuminated
Nov 17
Waxing Crescent
Nov 20
First Quarter
Nov 28
Full
Dec 6
Last Quarter
Dec 13
New

Hourly Weather History & Observations

Time (EST) Temp. Windchill Dew Point Humidity Pressure Visibility Wind Dir Wind Speed Gust Speed Precip Events Conditions
12:15 AM 28.6 °F - 25.2 °F 87% 30.46 in 10.0 mi Calm Calm - N/A   Clear
12:35 AM 29.3 °F - 26.2 °F 88% 30.46 in 10.0 mi Calm Calm - N/A   Clear
12:55 AM 28.2 °F - 24.8 °F 87% 30.46 in 10.0 mi Calm Calm - N/A   Clear
1:15 AM 28.4 °F - 25.0 °F 87% 30.46 in 10.0 mi Calm Calm - N/A   Clear
1:35 AM 28.0 °F - 25.2 °F 89% 30.46 in 10.0 mi Calm Calm - N/A   Clear
1:55 AM 28.2 °F - 24.8 °F 87% 30.47 in 10.0 mi Calm Calm - N/A   Clear
2:15 AM 28.2 °F - 25.2 °F 88% 30.47 in 10.0 mi Calm Calm - N/A   Clear
2:35 AM 26.6 °F - 23.2 °F 87% 30.48 in 10.0 mi Calm Calm - N/A   Clear
2:55 AM 26.8 °F - 24.1 °F 90% 30.48 in 10.0 mi Calm Calm - N/A   Clear
3:15 AM 26.4 °F - 23.7 °F 90% 30.48 in 10.0 mi Calm Calm - N/A   Clear
3:35 AM 26.2 °F - 23.4 °F 89% 30.48 in 7.0 mi Calm Calm - N/A   Clear
3:55 AM 26.6 °F - 24.1 °F 90% 30.49 in 7.0 mi Calm Calm - N/A   Clear
4:15 AM 25.5 °F - 22.8 °F 89% 30.49 in 7.0 mi Calm Calm - N/A   Clear
4:35 AM 26.1 °F - 23.7 °F 91% 30.50 in 7.0 mi Calm Calm - N/A   Clear
4:55 AM 25.7 °F - 22.8 °F 89% 30.51 in 10.0 mi Calm Calm - N/A   Clear
5:15 AM 24.8 °F - 21.6 °F 87% 30.51 in 10.0 mi Calm Calm - N/A   Clear
5:35 AM 25.0 °F - 21.9 °F 88% 30.51 in 10.0 mi Calm Calm - N/A   Clear
5:55 AM 26.4 °F - 23.9 °F 90% 30.52 in 7.0 mi Calm Calm - N/A   Clear
6:15 AM 23.0 °F - 19.9 °F 88% 30.52 in 10.0 mi Calm Calm - N/A   Clear
6:35 AM 23.7 °F - 20.7 °F 88% 30.53 in 10.0 mi Calm Calm - N/A   Clear
6:55 AM 24.1 °F - 21.2 °F 89% 30.54 in 10.0 mi Calm Calm - N/A   Clear
7:15 AM 24.3 °F - 21.7 °F 90% 30.54 in 7.0 mi Calm Calm - N/A   Clear
7:35 AM 25.7 °F - 22.8 °F 89% 30.55 in 7.0 mi Calm Calm - N/A   Clear
7:55 AM 26.4 °F - 23.4 °F 88% 30.55 in 7.0 mi Calm Calm - N/A   Clear
8:15 AM 29.3 °F - 26.1 °F 88% 30.56 in 7.0 mi Calm Calm - N/A   Clear
8:35 AM 32.0 °F - 28.2 °F 86% 30.57 in 10.0 mi Calm Calm - N/A   Clear
8:55 AM 33.4 °F - 29.5 °F 85% 30.57 in 10.0 mi Calm Calm - N/A   Clear
9:15 AM 38.3 °F 35.9 °F 30.9 °F 75% 30.58 in 10.0 mi NE 3.5 mph - N/A   Clear
9:35 AM 40.6 °F 36.0 °F 31.5 °F 70% 30.58 in 10.0 mi ENE 6.9 mph - N/A   Clear
9:55 AM 42.1 °F 39.2 °F 30.6 °F 64% 30.59 in 10.0 mi NNE 4.6 mph - N/A   Clear
10:15 AM 44.1 °F 40.8 °F 31.3 °F 61% 30.59 in 10.0 mi NE 5.8 mph - N/A   Clear
10:35 AM 45.5 °F 41.3 °F 31.3 °F 58% 30.58 in 10.0 mi NE 8.1 mph - N/A   Clear
10:55 AM 45.9 °F 41.7 °F 30.7 °F 56% 30.58 in 10.0 mi NE 8.1 mph - N/A   Clear
11:15 AM 47.1 °F - 31.5 °F 55% 30.58 in 10.0 mi NE 6.9 mph - N/A   Clear
11:35 AM 47.7 °F - 30.4 °F 51% 30.57 in 10.0 mi NNE 5.8 mph - N/A   Clear
12:55 PM 51.8 °F - 29.5 °F 42% 30.54 in 10.0 mi NNE 8.1 mph - N/A   Clear
1:15 PM 51.6 °F - 28.6 °F 41% 30.53 in 10.0 mi North 9.2 mph - N/A   Clear
1:35 PM 52.3 °F - 29.3 °F 41% 30.53 in 10.0 mi NE 5.8 mph - N/A   Clear
1:55 PM 53.6 °F - 28.4 °F 38% 30.53 in 10.0 mi North 8.1 mph - N/A   Clear
2:15 PM 53.8 °F - 27.7 °F 37% 30.52 in 10.0 mi North 6.9 mph - N/A   Clear
2:35 PM 54.1 °F - 26.4 °F 34% 30.52 in 10.0 mi North 9.2 mph - N/A   Clear
2:55 PM 54.1 °F - 25.3 °F 33% 30.53 in 10.0 mi NNE 6.9 mph - N/A   Clear
3:15 PM 54.5 °F - 24.4 °F 31% 30.53 in 10.0 mi North 5.8 mph - N/A   Clear
3:35 PM 54.1 °F - 24.4 °F 32% 30.54 in 10.0 mi NNE 6.9 mph - N/A   Clear
3:55 PM 53.6 °F - 24.6 °F 33% 30.53 in 10.0 mi NNE 6.9 mph - N/A   Clear
4:15 PM 52.7 °F - 25.5 °F 35% 30.54 in 10.0 mi NNE 5.8 mph - N/A   Clear
4:35 PM 51.8 °F - 25.2 °F 36% 30.54 in 2.5 mi NNE 6.9 mph - N/A   Haze
4:55 PM 50.2 °F - 25.7 °F 39% 30.54 in 3.0 mi NNE 4.6 mph - N/A   Haze
5:15 PM 45.1 °F 42.8 °F 27.1 °F 49% 30.55 in 4.0 mi NE 4.6 mph - N/A   Haze
5:35 PM 46.6 °F - 27.3 °F 47% 30.54 in 3.0 mi North 3.5 mph - N/A   Haze
5:55 PM 45.7 °F 43.4 °F 27.5 °F 49% 30.54 in 2.0 mi NNE 4.6 mph - N/A   Haze
6:15 PM 43.2 °F 39.7 °F 27.7 °F 54% 30.55 in 10.0 mi NE 5.8 mph - N/A   Clear
6:35 PM 42.4 °F - 27.9 °F 56% 30.55 in 10.0 mi Calm Calm - N/A   Clear
7:15 PM 43.3 °F 41.7 °F 28.0 °F 55% 30.55 in 10.0 mi North 3.5 mph - N/A   Clear
7:35 PM 37.4 °F - 27.7 °F 68% 30.56 in 10.0 mi Calm Calm - N/A   Clear
7:55 PM 39.6 °F - 28.4 °F 64% 30.57 in 10.0 mi Calm Calm - N/A   Clear
8:15 PM 38.5 °F - 27.7 °F 65% 30.57 in 10.0 mi Calm Calm - N/A   Clear
8:35 PM 37.2 °F - 28.0 °F 69% 30.57 in 10.0 mi Calm Calm - N/A   Clear
8:55 PM 34.5 °F - 28.2 °F 78% 30.57 in 10.0 mi Calm Calm - N/A   Clear
9:15 PM 34.9 °F - 27.9 °F 76% 30.57 in 10.0 mi Calm Calm - N/A   Clear
9:35 PM 34.0 °F - 28.2 °F 79% 30.58 in 10.0 mi Calm Calm - N/A   Clear
9:55 PM 36.3 °F - 28.6 °F 74% 30.58 in 10.0 mi Calm Calm - N/A   Clear
10:15 PM 33.6 °F - 28.4 °F 81% 30.58 in 10.0 mi Calm Calm - N/A   Clear
10:35 PM 33.6 °F - 27.3 °F 78% 30.58 in 10.0 mi Calm Calm - N/A   Clear
10:55 PM 32.2 °F - 27.3 °F 82% 30.58 in 10.0 mi Calm Calm - N/A   Clear
11:15 PM 33.3 °F - 27.5 °F 79% 30.57 in 10.0 mi Calm Calm - N/A   Clear
11:35 PM 31.8 °F - 27.0 °F 82% 30.57 in 10.0 mi Calm Calm - N/A   Clear
11:55 PM 32.0 °F - 27.9 °F 85% 30.57 in 10.0 mi Calm Calm - N/A   Clear